sat.trackr.live / text

‹ back to catalog

STARLINK-37941

NORAD 69667 · 2026-143U

PAYLOAD ACTIVE UNKNOWN

§ Identity

Operator
Country
US
Launch date
2026-06-21
Launch site
AFWTR
Launch vehicle
Mass (kg)
RCS (m²)

Purposes: comms

External: N2YO · Heavens-Above · Gunter

§ Orbital elements

Epoch: 2026-09-19T20:34:31.984032Z

Period
93.90 min
Inclination
97.2828°
Eccentricity
0.0000292
Mean motion
15.33473078 rev/d
Perigee alt
465.3 km
Apogee alt
465.7 km
Semi-major
6,843.6 km
B*
5.4704e-4
RAAN
306.0490°
Arg perigee
153.8431°
Mean anomaly
206.2827°
Rev number
1,504

§ Raw data

STARLINK-379411 69667U 26143U   26262.85731463  .00017642  00000+0  54704-3 0  99972 69667  97.2828 306.0490 0000292 153.8431 206.2827 15.33473078 15040

JSON: /api/v1/satellites/69667 · /tle

For live sub-satellite position, see the globe view (requires WebGL).

§ Visibility from observer

Set your observer location to see the next 7 days of passes ≥ 10°. The values pass through the URL so the page stays shareable.

No JS? Fill the form by hand. The geolocation button needs JavaScript.